Wind_Speed
8 8 9 10 10 10 8 7 6 9 13 15 15 20 24 29 31 33 37 35 31 29 31 32 34 36 39 43 45 49 50 50 49 48 46 46 44 35 33 33 31 31 33
9 8 9 11 11 11 9 7 7 9 11 14 17 20 24 29 32 35 39 36 31 29 31 33 35 36 40 44 47 50 52 51 50 47 46 47 43 34 33 32 32 31 33
11 9 10 11 10 10 8 5 5 7 11 16 18 20 24 29 33 36 39 37 34 33 33 35 36 37 41 46 49 52 52 50 49 47 48 47 43 35 31 32 35 35 36
11 10 11 10 8 7 6 3 7 10 14 18 21 23 25 31 33 35 40 38 35 36 33 34 35 37 42 47 50 52 50 50 49 49 49 47 41 35 33 33 34 37 37
11 10 10 7 7 6 2 4 9 11 15 20 25 25 28 33 34 36 40 39 37 36 34 33 35 38 43 48 52 52 49 49 50 50 49 44 37 34 33 34 35 36 38
11 12 8 4 6 3 5 10 14 16 15 17 23 26 30 34 36 37 41 40 40 38 35 34 35 39 44 49 53 50 49 48 50 50 47 40 36 35 36 37 39 38 37
12 11 5 6 5 3 7 12 19 23 26 25 25 27 32 36 38 40 45 43 42 41 39 36 38 40 46 49 52 49 48 49 50 49 42 36 36 39 41 42 40 39 40
15 11 5 7 6 4 8 11 17 20 23 25 27 30 34 38 40 44 45 45 43 43 39 37 38 41 46 50 51 47 46 47 47 45 38 37 39 41 43 42 41 40 41
12 6 5 4 4 2 6 10 13 17 21 26 29 32 35 39 37 41 43 43 45 44 41 39 39 42 47 50 49 45 46 48 46 42 38 39 42 44 43 42 42 42 40
11 5 4 3 1 3 7 11 16 21 23 27 31 32 34 37 36 40 42 44 43 41 40 38 40 42 47 51 48 45 47 47 46 41 39 41 43 42 40 38 42 43 44
16 9 7 4 7 11 10 11 16 22 23 26 31 34 35 34 36 38 40 43 41 41 42 40 39 42 47 51 48 45 49 48 46 41 41 44 45 46 43 41 42 43 43
21 15 11 9 11 12 14 14 19 22 26 29 30 32 31 33 36 34 38 38 41 42 42 41 42 43 47 50 47 47 50 48 45 42 42 45 46 46 44 44 45 45 44
24 21 21 16 13 14 14 19 20 24 29 32 34 32 33 32 33 33 36 37 39 41 42 43 44 45 47 50 49 49 50 48 45 42 43 46 47 45 43 45 46 45 45
22 23 21 18 17 18 19 21 23 26 30 34 35 34 35 37 35 33 35 36 40 42 44 45 47 47 48 49 50 50 51 50 46 44 44 46 47 45 43 45 46 46 45
27 26 24 23 24 22 25 28 28 30 34 35 39 35 37 37 38 34 33 35 40 43 46 46 48 49 49 51 51 51 54 51 49 46 44 46 47 45 45 47 47 47 45
31 29 28 26 28 27 28 31 34 39 26 35 43 39 39 38 38 35 33 35 40 44 47 48 49 51 52 52 54 54 56 53 50 45 45 45 46 45 46 47 49 48 44
37 36 36 34 31 30 32 37 40 36 38 39 45 41 39 36 35 34 32 37 41 46 48 49 50 52 54 54 56 56 57 52 50 45 45 47 47 46 47 48 49 47 45
45 41 40 43 33 35 37 39 45 42 42 40 45 42 39 35 34 33 32 37 44 46 49 50 52 54 57 56 58 56 56 53 50 45 45 47 47 47 49 49 47 48 48
47 46 43 46 41 38 40 44 47 44 44 43 46 46 38 34 33 33 32 40 45 46 48 49 54 55 57 58 59 57 56 54 49 45 45 46 47 48 50 50 48 49 52
51 50 47 49 45 46 42 48 45 46 47 45 48 44 36 33 33 33 35 42 44 46 47 50 54 56 57 60 58 57 55 54 47 45 44 46 46 49 49 50 49 51 55
52 49 52 51 51 48 44 46 46 46 48 50 49 40 37 34 33 33 37 39 42 45 47 50 53 56 59 58 55 55 53 54 47 43 44 45 45 48 49 48 51 53 57
50 52 53 54 45 43 42 47 49 49 51 51 49 37 35 34 32 36 37 38 40 43 45 50 54 59 54 50 52 53 51 54 46 42 42 45 46 48 49 48 50 54 59
53 53 55 54 46 41 45 50 51 52 54 50 46 36 37 39 38 38 38 40 40 41 45 51 54 52 52 49 50 52 51 54 43 39 40 42 44 47 48 48 50 54 60
45 44 44 42 42 46 51 53 56 54 51 48 46 43 43 41 41 40 43 41 38 40 42 45 48 51 52 48 48 49 48 51 40 37 39 40 42 45 45 47 50 55 61
45 45 46 47 49 52 51 52 56 50 52 49 49 51 44 43 41 40 41 37 36 36 37 45 47 54 53 49 51 51 47 51 36 34 35 38 41 43 42 46 48 54 61
50 53 57 58 55 52 50 52 51 55 54 50 56 52 42 43 42 38 36 35 38 37 39 44 52 52 58 53 51 52 52 53 32 32 34 35 38 41 40 43 47 53 60
Wind_Direction
186 176 159 146 144 141 132 101 70 43 20 7 0 359 354 351 349 345 351 351 350 349 345 344 346 345 342 341 341 340 338 338 338 335 333 328 325 326 328 326 323 319 316
195 184 167 152 145 131 116 97 55 25 1 352 349 349 349 345 346 343 346 347 346 344 341 344 345 342 341 341 340 340 339 337 338 336 331 329 330 331 330 328 324 323 321
200 190 175 157 138 127 112 72 17 351 344 339 338 336 341 339 342 341 344 343 342 341 339 341 341 340 342 341 340 340 338 338 338 335 334 333 333 333 332 329 327 325 325
202 195 183 161 135 112 92 37 344 336 338 331 331 325 334 335 335 339 341 341 345 343 341 339 339 340 342 340 340 340 340 338 337 336 339 337 336 336 335 332 327 325 324
202 200 188 159 104 86 35 312 303 316 329 324 322 328 331 332 331 336 339 342 346 344 340 338 339 340 340 339 341 341 340 339 338 338 341 339 338 338 335 329 327 326 326
210 203 193 125 84 54 324 305 305 306 305 313 328 329 329 324 326 331 337 341 347 344 338 337 338 339 340 339 341 341 340 340 339 341 342 342 343 342 334 331 332 328 326
228 205 190 84 68 355 318 315 321 317 320 341 337 330 325 324 326 325 334 344 347 342 336 335 336 339 339 339 341 341 340 340 340 341 344 344 342 338 333 334 331 330 327
220 214 134 88 69 4 329 320 312 313 324 331 331 328 321 321 323 329 334 342 345 340 335 334 335 339 339 339 342 341 339 339 339 341 341 342 339 337 336 335 332 330 327
207 179 126 120 92 12 333 337 330 325 321 325 329 320 315 319 322 322 331 339 340 337 334 334 336 339 340 342 341 340 341 339 340 343 341 340 339 338 337 335 332 331 327
194 186 156 145 311 296 324 347 333 326 321 322 319 312 308 311 315 321 328 333 336 331 333 335 336 339 341 343 342 342 339 339 342 343 340 340 340 337 338 336 336 334 332
208 212 230 240 256 269 295 326 330 333 330 315 306 300 301 308 312 319 325 329 334 332 332 335 338 340 342 344 343 341 341 340 343 342 340 341 339 339 338 338 338 337 334
227 231 271 275 267 282 275 311 316 323 327 327 318 311 303 304 309 313 321 330 334 335 335 337 340 341 343 345 344 342 342 342 342 340 340 341 340 340 338 337 338 337 335
236 249 266 274 283 297 282 287 299 318 318 318 321 316 311 302 306 309 319 330 334 338 337 340 341 342 344 346 345 343 342 341 341 338 340 341 342 341 339 337 337 337 336
243 244 256 267 283 288 280 284 296 306 315 321 320 315 311 307 304 306 316 326 332 336 339 340 342 343 344 344 346 344 341 340 340 338 340 342 341 340 337 337 337 337 336
247 248 254 275 285 278 279 289 296 294 304 317 322 312 309 298 298 301 312 321 327 332 336 338 340 342 341 342 343 343 342 340 341 340 341 342 341 339 338 337 338 338 338
247 257 264 275 283 279 281 286 293 287 309 315 316 308 303 296 291 297 307 316 322 327 333 335 340 342 342 342 343 342 344 341 341 341 340 340 341 338 338 337 338 339 339
252 261 269 270 276 275 281 280 285 284 302 301 313 307 299 292 286 291 303 313 317 322 328 331 337 343 344 342 342 342 344 343 341 341 340 340 340 338 338 338 339 340 340
250 258 265 261 277 268 276 280 278 290 293 301 309 306 298 290 285 288 298 306 312 317 324 328 332 335 341 342 342 340 343 344 340 340 340 340 339 338 338 338 340 341 340
253 256 262 270 272 266 271 275 274 285 291 293 306 307 296 289 286 287 295 302 307 313 319 324 328 333 337 342 341 338 337 340 340 339 339 340 339 338 338 339 341 341 341
249 254 261 263 262 259 275 273 276 283 287 294 301 306 296 287 283 284 292 299 304 309 315 320 326 329 332 337 336 335 336 340 338 338 338 340 339 339 339 340 341 342 342
247 251 256 253 250 260 269 271 277 280 285 295 301 307 293 287 284 282 290 295 301 306 312 318 322 327 330 333 331 332 334 337 336 338 338 338 339 340 340 342 342 343 345
242 247 255 260 269 266 268 271 273 278 284 296 301 305 291 288 282 283 286 291 297 303 310 316 321 326 329 330 328 330 330 334 335 337 337 338 340 341 341 342 343 345 347
244 248 250 257 262 262 265 269 272 276 286 294 295 303 293 290 289 288 285 289 296 305 311 318 326 328 328 327 327 329 329 331 331 335 336 337 340 341 341 342 344 347 348
244 246 248 251 254 259 262 267 274 281 287 284 294 297 296 288 286 286 286 291 297 304 316 326 329 332 330 326 324 326 326 327 328 335 336 335 340 340 342 342 346 349 349
244 245 247 249 253 257 263 265 272 275 277 283 289 292 285 287 285 287 286 287 291 303 316 326 328 336 332 327 326 325 322 326 328 333 335 335 341 339 342 343 348 351 351
243 247 249 249 250 250 254 261 265 268 273 283 285 287 275 277 278 279 280 282 288 299 306 317 325 328 339 329 327 327 326 322 324 333 334 336 339 339 343 346 349 352 352
Height
5938 5939 5939 5940 5940 5941 5941 5941 5940 5939 5938 5936 5934 5932 5928 5925 5921 5917 5912 5906 5901 5895 5890 5886 5881 5874 5868 5860 5852 5844 5834 5825 5817 5808 5800 5791 5781 5774 5770 5764 5758 5753 5747
5937 5938 5938 5939 5939 5940 5940 5940 5939 5938 5937 5935 5933 5929 5926 5923 5919 5915 5910 5905 5899 5892 5887 5882 5876 5870 5863 5855 5847 5839 5829 5819 5810 5801 5790 5782 5775 5769 5764 5757 5752 5747 5741
5936 5936 5937 5938 5938 5938 5938 5938 5938 5936 5935 5933 5931 5927 5924 5920 5917 5912 5908 5902 5895 5889 5884 5879 5872 5866 5858 5850 5841 5831 5822 5813 5804 5794 5784 5777 5769 5763 5757 5751 5745 5739 5733
5934 5935 5936 5936 5936 5936 5936 5936 5936 5934 5933 5931 5929 5925 5922 5918 5914 5910 5904 5899 5892 5887 5881 5874 5868 5861 5854 5845 5835 5826 5816 5807 5798 5788 5781 5771 5764 5757 5752 5746 5740 5733 5727
5932 5933 5934 5933 5932 5933 5934 5934 5935 5934 5933 5931 5927 5923 5919 5915 5911 5906 5902 5896 5889 5884 5877 5871 5865 5857 5849 5840 5830 5820 5811 5802 5792 5783 5774 5765 5758 5752 5746 5740 5734 5727 5720
5929 5930 5931 5930 5930 5931 5932 5933 5932 5930 5926 5925 5923 5920 5916 5913 5908 5903 5899 5893 5885 5880 5873 5867 5861 5852 5845 5835 5824 5814 5805 5795 5785 5776 5767 5760 5753 5746 5739 5734 5728 5720 5714
5926 5927 5927 5927 5928 5930 5930 5930 5927 5924 5918 5923 5917 5916 5914 5909 5904 5900 5894 5888 5881 5876 5870 5863 5856 5848 5840 5830 5820 5810 5800 5790 5780 5771 5762 5754 5747 5741 5735 5727 5720 5713 5705
5924 5924 5924 5926 5927 5928 5928 5927 5924 5922 5920 5918 5915 5914 5910 5905 5900 5894 5889 5884 5878 5872 5865 5858 5852 5844 5835 5826 5815 5805 5796 5786 5777 5769 5760 5752 5744 5736 5729 5721 5714 5706 5699
5921 5921 5922 5924 5925 5925 5926 5925 5923 5921 5918 5916 5913 5911 5907 5901 5897 5893 5887 5880 5874 5868 5862 5854 5847 5839 5831 5821 5811 5801 5791 5781 5771 5762 5755 5747 5739 5731 5723 5715 5705 5699 5692
5918 5918 5919 5921 5922 5922 5922 5921 5919 5917 5915 5912 5910 5907 5903 5898 5894 5889 5882 5877 5871 5865 5858 5850 5842 5834 5825 5816 5805 5796 5786 5776 5766 5758 5751 5743 5736 5728 5720 5712 5704 5695 5686
5914 5915 5916 5917 5918 5918 5918 5917 5915 5914 5911 5909 5906 5902 5898 5893 5890 5885 5879 5873 5867 5860 5852 5846 5837 5829 5820 5811 5800 5790 5781 5770 5761 5753 5745 5737 5728 5720 5712 5703 5695 5686 5678
5910 5912 5913 5913 5913 5912 5912 5912 5911 5909 5908 5905 5901 5897 5893 5889 5885 5881 5876 5870 5863 5855 5847 5840 5832 5824 5815 5805 5795 5786 5776 5766 5757 5748 5740 5732 5723 5715 5706 5698 5689 5680 5671
5905 5907 5908 5909 5908 5908 5907 5907 5907 5905 5904 5900 5896 5892 5888 5884 5880 5876 5872 5866 5859 5852 5844 5836 5828 5819 5811 5801 5790 5781 5771 5761 5752 5743 5735 5727 5719 5710 5702 5693 5683 5674 5665
5899 5900 5902 5903 5903 5902 5903 5903 5902 5900 5898 5895 5890 5886 5882 5878 5875 5872 5867 5861 5855 5848 5841 5832 5824 5815 5806 5797 5786 5777 5767 5756 5746 5738 5730 5722 5713 5704 5696 5688 5679 5669 5659
5893 5895 5896 5896 5897 5897 5898 5897 5895 5892 5891 5888 5884 5880 5876 5872 5869 5865 5861 5856 5850 5844 5836 5828 5820 5811 5802 5793 5782 5772 5762 5751 5742 5734 5725 5716 5707 5699 5690 5681 5671 5662 5652
5886 5887 5889 5889 5891 5891 5890 5889 5887 5884 5880 5881 5878 5873 5869 5865 5862 5859 5855 5851 5845 5839 5832 5823 5814 5805 5796 5787 5777 5766 5756 5746 5737 5728 5719 5710 5701 5694 5685 5674 5665 5655 5646
5878 5879 5880 5881 5882 5882 5882 5881 5880 5875 5876 5874 5870 5865 5861 5857 5854 5852 5849 5844 5839 5833 5826 5818 5809 5800 5792 5781 5771 5761 5751 5741 5731 5722 5714 5706 5696 5687 5678 5668 5659 5648 5639
5868 5870 5872 5872 5872 5873 5873 5873 5870 5870 5869 5867 5863 5857 5852 5849 5846 5844 5841 5837 5831 5826 5819 5811 5804 5795 5787 5776 5766 5756 5746 5735 5726 5717 5709 5700 5692 5682 5673 5662 5651 5642 5632
5858 5860 5862 5862 5864 5864 5863 5862 5861 5861 5860 5858 5854 5849 5843 5840 5838 5836 5833 5830 5824 5819 5812 5805 5797 5790 5781 5771 5761 5750 5740 5730 5721 5712 5703 5695 5686 5677 5668 5657 5646 5636 5625
5847 5850 5852 5852 5854 5852 5852 5852 5851 5851 5849 5849 5845 5841 5835 5832 5830 5828 5825 5821 5816 5811 5805 5798 5791 5783 5774 5765 5755 5745 5735 5725 5716 5707 5699 5690 5681 5672 5663 5652 5642 5631 5618
5835 5840 5840 5838 5838 5839 5842 5841 5841 5840 5838 5837 5834 5832 5826 5823 5822 5820 5817 5813 5808 5803 5797 5790 5784 5776 5767 5758 5749 5739 5729 5720 5711 5702 5695 5685 5676 5667 5658 5647 5637 5625 5613
5824 5827 5827 5829 5831 5830 5832 5831 5830 5829 5827 5826 5823 5822 5816 5814 5813 5811 5808 5804 5799 5794 5789 5783 5776 5768 5760 5751 5742 5733 5723 5714 5705 5698 5690 5682 5673 5663 5654 5643 5633 5621 5609
5812 5815 5816 5818 5819 5820 5820 5818 5818 5818 5816 5815 5812 5812 5806 5804 5803 5801 5798 5795 5792 5787 5782 5776 5769 5760 5752 5743 5735 5726 5717 5709 5700 5692 5684 5677 5669 5659 5650 5640 5629 5618 5606
5798 5801 5802 5805 5808 5809 5807 5807 5806 5806 5805 5803 5800 5802 5797 5794 5792 5792 5789 5787 5784 5780 5775 5769 5761 5754 5746 5737 5728 5719 5710 5702 5695 5688 5680 5673 5665 5656 5647 5638 5627 5616 5604
5784 5787 5790 5793 5795 5794 5793 5793 5793 5793 5791 5790 5788 5789 5786 5783 5782 5781 5779 5777 5774 5770 5766 5761 5754 5746 5738 5730 5722 5713 5704 5697 5690 5683 5675 5670 5662 5653 5644 5636 5625 5613 5603
5773 5775 5773 5776 5778 5776 5778 5777 5779 5778 5778 5776 5774 5775 5773 5772 5770 5770 5768 5766 5763 5761 5757 5751 5746 5739 5731 5723 5716 5708 5700 5692 5684 5680 5673 5666 5658 5651 5643 5634 5625 5612 5602